User: anonymous   Login
Location: Oshawa
(43.9000°N, 78.8670°W)
Time: 13:33:03
(UTC-04:00)
Language:

Cosmos 1500 - Orbit

View from above orbital plane
View from above orbital plane
View from above satellite
View from above satellite

Ground track
Ground track

The orbit data is extracted from the following two-line orbital elements,

1 14372U 83099A   17114.92094462 +.00002180 +00000-0 +10742-3 0  9994
2 14372 082.5180 036.2213 0013865 271.7524 132.1713 15.17360322829424
Epoch (UTC): 24 April 2017 22:06:09
Eccentricity: 0.0013865
inclination: 82.5180°
perigee height: 504 km
apogee height: 523 km
right ascension of ascending node: 36.2213°
argument of perigee: 271.7524°
revolutions per day: 15.17360322
mean anomaly at epoch: 132.1713°
orbit number at epoch: 82942

The dashed part of the orbit path shows where the satellite is in the earth's shadow,  

DLR